UT4UGW-13 Weather Reports


time (UTC)temp
C
wind
direction
speed
KPH
gust
KPH
rain 1hr
cm
rain 24hr
cm
rain mn
cm
humidity
%
barometer
mb
20260503230037 18 0.0 0.0 0.00 0.00 0.00 985.5
20260503225007 18 0.0 0.0 0.00 0.00 0.00 985.6
20260503223937 18 0.0 0.0 0.00 0.00 0.00 985.6
20260503222936 18 0.0 0.0 0.00 0.00 0.00 985.8
20260503221937 18 0.0 0.0 0.00 0.00 0.00 985.7
20260503220907 18 0.0 0.0 0.00 0.00 0.00 985.7
20260503215837 18 0.0 0.0 0.00 0.00 0.00 985.7
20260503214837 18 0.0 0.0 0.00 0.00 0.00 985.7
20260503213806 18 0.0 0.0 0.00 0.00 0.00 985.7
20260503212736 18 0.0 0.0 0.00 0.00 0.00 985.8
20260503211736 18 0.0 0.0 0.00 0.00 0.00 985.8
20260503210706 18 0.0 0.0 0.00 0.00 0.00 985.8
20260503205636 19 0.0 0.0 0.00 0.00 0.00 985.8
20260503204606 19 0.0 0.0 0.00 0.00 0.00 985.8
20260503203606 19 0.0 0.0 0.00 0.00 0.00 985.8
20260503202536 19 0.0 0.0 0.00 0.00 0.00 985.8
20260503201536 19 0.0 0.0 0.00 0.00 0.00 985.8
20260503200536 20 0.0 0.0 0.00 0.00 0.00 985.8
20260503195536 20 0.0 0.0 0.00 0.00 0.00 985.7
20260503194536 20 0.0 0.0 0.00 0.00 0.00 985.8
20260503193536 20 0.0 0.0 0.00 0.00 0.00 985.7
20260503192506 20 0.0 0.0 0.00 0.00 0.00 985.8
20260503191506 20 0.0 0.0 0.00 0.00 0.00 985.8
20260503190436 20 0.0 0.0 0.00 0.00 0.00 985.6
20260503185436 20 0.0 0.0 0.00 0.00 0.00 985.7
20260503184406 20 0.0 0.0 0.00 0.00 0.00 985.6
20260503183406 21 0.0 0.0 0.00 0.00 0.00 985.6
20260503182406 21 0.0 0.0 0.00 0.00 0.00 985.6
20260503181336 21 0.0 0.0 0.00 0.00 0.00 985.6
20260503180336 21 0.0 0.0 0.00 0.00 0.00 985.5
20260503175336 21 0.0 0.0 0.00 0.00 0.00 985.4
20260503174306 21 0.0 0.0 0.00 0.00 0.00 985.4
20260503173236 21 0.0 0.0 0.00 0.00 0.00 985.4
20260503172206 22 0.0 0.0 0.00 0.00 0.00 985.3
20260503171136 22 0.0 0.0 0.00 0.00 0.00 985.3
20260503170136 22 0.0 0.0 0.00 0.00 0.00 985.2
20260503150836 25 0.0 0.0 0.00 0.00 0.00 985.3
20260503130536 24 0.0 0.0 0.00 0.00 0.00 986.7
20260503110406 21 0.0 0.0 0.00 0.00 0.00 988.0
20260503100136 20 0.0 0.0 0.00 0.00 0.00 988.9
20260503080936 18 0.0 0.0 0.00 0.00 0.00 989.9
20260503071836 18 0.0 0.0 0.00 0.00 0.00 990.1
20260503070805 18 0.0 0.0 0.00 0.00 0.00 990.1
20260503054535 17 0.0 0.0 0.00 0.00 0.00 990.6
20260503053535 17 0.0 0.0 0.00 0.00 0.00 990.7
20260503052505 17 0.0 0.0 0.00 0.00 0.00 990.7
20260503051505 17 0.0 0.0 0.00 0.00 0.00 990.8
20260503050435 17 0.0 0.0 0.00 0.00 0.00 991.0
20260503045435 17 0.0 0.0 0.00 0.00 0.00 991.0
20260503044435 17 0.0 0.0 0.00 0.00 0.00 991.0
20260503043405 17 0.0 0.0 0.00 0.00 0.00 991.0
20260503042335 17 0.0 0.0 0.00 0.00 0.00 991.0
20260503041305 17 0.0 0.0 0.00 0.00 0.00 991.0
20260503040235 17 0.0 0.0 0.00 0.00 0.00 990.9
20260503035235 17 0.0 0.0 0.00 0.00 0.00 990.9
20260503034235 17 0.0 0.0 0.00 0.00 0.00 991.0
20260503033235 17 0.0 0.0 0.00 0.00 0.00 991.0
20260503032205 17 0.0 0.0 0.00 0.00 0.00 991.0
20260503031205 17 0.0 0.0 0.00 0.00 0.00 990.9
20260503030135 17 0.0 0.0 0.00 0.00 0.00 991.1
20260503025105 17 0.0 0.0 0.00 0.00 0.00 991.1
20260503024105 17 0.0 0.0 0.00 0.00 0.00 990.9
20260503023035 17 0.0 0.0 0.00 0.00 0.00 990.9
20260503022005 17 0.0 0.0 0.00 0.00 0.00 990.7
20260503021005 17 0.0 0.0 0.00 0.00 0.00 990.7
20260503015935 17 0.0 0.0 0.00 0.00 0.00 990.7
20260503014905 17 0.0 0.0 0.00 0.00 0.00 990.9
20260503013905 17 0.0 0.0 0.00 0.00 0.00 991.0
20260503012905 17 0.0 0.0 0.00 0.00 0.00 991.2
20260503011835 17 0.0 0.0 0.00 0.00 0.00 991.0
20260503010805 17 0.0 0.0 0.00 0.00 0.00 991.1
20260503005735 17 0.0 0.0 0.00 0.00 0.00 991.2
20260503004735 17 0.0 0.0 0.00 0.00 0.00 991.3
20260503003705 17 0.0 0.0 0.00 0.00 0.00 991.3
20260503002635 17 0.0 0.0 0.00 0.00 0.00 991.2
20260503001605 17 0.0 0.0 0.00 0.00 0.00 991.3
20260503000605 17 0.0 0.0 0.00 0.00 0.00 991.5
20260502235535 17 0.0 0.0 0.00 0.00 0.00 991.5
20260502234535 17 0.0 0.0 0.00 0.00 0.00 991.9
20260502233535 17 0.0 0.0 0.00 0.00 0.00 991.7
20260502232535 17 0.0 0.0 0.00 0.00 0.00 991.6
20260502231505 17 0.0 0.0 0.00 0.00 0.00 991.8